Wind_Speed
23 24 23 20 19 19 19 21 18 19 18 15 10 11 12 18 19 18 14 14 14 14 9 6 5 7 8 10 10 9 8 8 8 9 9 10 11 11 11 11 11 10 11
21 25 24 21 15 22 25 26 23 21 19 19 16 11 9 11 14 19 19 17 16 16 15 12 7 8 9 11 11 12 11 10 9 9 9 10 11 11 12 12 12 11 11
20 25 24 19 18 23 27 28 29 27 22 20 21 19 14 8 10 9 14 21 21 18 15 15 17 17 14 14 14 12 14 13 12 12 11 11 12 12 13 14 14 13 11
20 22 19 21 23 25 25 26 30 32 30 30 23 19 19 18 9 10 9 12 18 19 18 18 15 15 16 18 18 17 14 15 16 14 13 13 13 14 14 15 15 14 13
18 18 19 18 22 24 24 30 32 32 31 32 29 25 20 18 16 13 10 11 10 16 19 19 20 20 20 21 22 21 20 17 16 17 17 15 15 16 16 16 16 15 15
17 17 17 18 18 20 20 25 29 30 32 31 29 28 24 21 18 16 14 9 15 11 16 14 17 20 21 22 22 23 23 24 21 19 18 16 17 19 20 20 18 17 17
13 14 14 14 16 18 18 20 27 29 31 32 30 29 27 27 24 21 21 16 7 10 11 16 17 17 17 20 23 24 23 23 25 27 22 24 24 22 21 23 22 21 19
12 11 11 11 14 14 14 18 22 29 32 32 34 32 29 26 27 26 23 22 15 10 10 11 10 9 13 18 23 25 26 27 22 27 28 27 28 27 25 23 23 24 23
9 9 9 10 12 14 12 14 16 19 26 30 30 31 33 34 32 30 27 26 24 24 18 13 9 10 13 17 17 19 24 29 32 27 28 30 32 31 29 28 25 25 26
8 8 8 8 11 13 11 11 14 18 21 26 28 30 29 31 32 32 32 31 32 29 27 26 22 17 16 12 14 15 19 25 28 32 27 27 31 35 35 34 33 31 29
7 8 10 9 10 11 14 13 15 18 16 20 22 23 28 27 27 29 32 31 31 32 33 31 30 29 27 25 20 16 19 19 18 22 24 27 27 30 35 41 38 37 35
8 9 9 11 12 12 13 13 15 17 14 21 24 24 22 23 27 28 29 31 32 32 31 33 32 33 33 33 34 30 29 26 20 22 27 31 33 33 36 37 39 44 41
9 11 12 12 14 14 14 15 16 17 19 24 24 25 25 24 25 26 28 30 32 32 31 29 32 34 33 33 34 34 37 36 32 29 30 30 32 35 36 38 41 41 45
11 13 15 16 16 15 17 18 21 21 24 26 27 27 25 26 27 28 26 27 31 34 34 35 34 36 37 37 35 35 36 36 37 36 35 34 34 36 40 43 42 43 45
14 16 19 21 23 23 24 23 24 26 26 26 28 25 25 23 30 30 27 28 28 30 32 34 38 41 40 40 40 41 38 38 38 38 38 39 38 39 43 45 46 47 47
18 18 20 22 23 24 26 27 27 28 28 27 27 29 28 26 33 32 28 30 30 31 32 34 39 42 41 42 44 44 43 44 43 43 42 42 41 39 41 47 48 50 49
21 22 24 26 27 29 30 30 30 31 30 29 30 31 30 29 37 32 29 32 33 34 35 38 40 41 41 43 45 49 47 47 47 45 45 45 45 43 40 46 49 49 44
25 25 26 28 29 29 30 30 30 30 31 33 34 33 30 34 36 32 33 35 37 38 40 41 41 40 41 43 46 47 48 48 49 49 49 49 48 45 44 46 51 53 51
27 26 27 30 30 31 30 29 29 31 32 35 35 34 35 38 33 36 37 38 40 41 41 40 40 41 43 45 47 50 50 49 49 50 54 56 53 50 45 49 52 53 55
30 29 29 30 29 29 29 30 30 31 33 36 38 38 40 35 37 39 39 40 42 43 41 41 43 47 46 44 47 50 52 53 53 53 53 55 54 51 48 50 53 53 50
33 32 31 32 31 31 32 31 31 33 34 38 40 42 41 41 41 44 45 44 44 45 45 46 51 50 46 46 48 50 52 53 54 55 56 57 53 50 50 51 52 51 50
34 35 35 33 33 34 35 34 34 37 40 42 43 43 41 42 45 48 47 46 46 48 50 52 52 47 47 47 48 50 52 55 56 56 56 56 53 52 51 49 48 48 46
35 36 37 37 37 39 41 42 42 45 48 49 46 45 45 47 50 50 49 47 49 52 52 55 52 51 51 49 51 51 52 55 58 57 55 54 52 51 49 46 45 44 43
36 36 37 40 41 44 44 46 47 51 53 49 47 48 49 50 51 52 51 52 54 55 55 54 54 54 54 54 52 51 54 57 57 55 54 50 50 47 45 43 42 42 40
38 40 42 44 45 47 48 50 53 54 51 48 48 50 51 54 54 56 56 56 58 57 57 56 58 57 56 55 53 54 57 57 54 50 47 48 46 43 42 40 38 38 35
43 45 46 48 50 52 54 54 53 52 49 49 51 53 56 57 58 60 60 59 60 61 61 61 62 61 58 56 55 58 58 55 48 44 45 45 43 41 39 37 35 39 37
Wind_Direction
59 49 44 46 44 41 37 30 24 21 26 19 339 274 243 240 252 253 242 227 233 232 238 251 256 279 281 293 286 285 295 299 307 306 305 307 300 297 298 290 284 275 270
60 47 41 47 49 46 47 41 35 26 18 24 19 358 293 260 239 239 243 248 235 230 237 254 271 279 277 279 288 286 289 292 294 296 299 297 295 290 289 288 283 275 272
53 42 37 40 51 45 43 42 46 41 36 30 32 25 6 307 265 259 248 239 240 252 264 261 264 266 260 262 267 271 279 281 283 287 290 291 290 291 282 279 277 277 271
42 36 39 36 39 38 39 40 40 39 40 41 34 32 31 19 348 273 275 262 249 248 257 259 260 263 263 262 266 269 268 274 276 276 279 282 284 284 284 281 276 279 272
33 32 34 32 36 34 39 37 33 33 32 36 40 37 28 28 22 360 318 283 254 249 250 252 261 263 266 270 272 272 269 267 268 273 272 276 283 282 283 281 279 271 265
25 21 26 22 30 35 34 35 32 28 25 22 25 32 38 31 19 7 10 321 256 262 252 251 252 256 261 263 268 273 277 271 264 267 268 269 275 280 278 278 281 279 276
22 18 18 19 20 27 30 28 29 24 19 16 13 15 20 25 30 28 19 10 319 281 263 247 253 267 264 260 260 261 262 265 276 264 260 266 269 274 277 281 279 279 275
9 16 11 12 5 16 25 30 25 23 15 10 8 5 7 12 11 14 26 27 19 2 331 314 296 294 288 293 279 273 270 266 263 266 261 255 261 264 267 269 274 277 278
1 358 357 359 353 357 13 10 19 19 20 10 7 7 1 356 357 360 3 4 6 8 9 4 347 328 324 319 304 294 292 279 265 260 271 268 257 260 263 268 268 273 274
346 336 340 346 343 347 347 357 15 12 19 14 3 360 355 352 350 349 348 349 348 350 349 349 347 341 338 318 335 328 311 308 285 274 273 275 270 262 261 265 266 268 275
307 316 318 318 328 339 339 342 353 357 3 1 357 358 350 347 348 344 342 339 338 340 340 342 341 339 338 337 339 316 331 310 318 287 277 283 281 268 262 264 266 266 266
271 281 289 296 306 312 326 328 335 347 344 340 347 351 350 343 340 338 339 336 334 333 334 337 338 339 337 335 334 335 332 324 308 295 291 279 279 278 276 267 265 266 268
263 272 275 276 292 302 309 315 325 333 333 333 336 337 344 340 334 333 333 333 331 326 327 326 331 328 325 321 322 323 325 325 319 309 299 285 282 282 276 274 269 267 266
274 280 274 278 288 294 299 307 314 312 318 326 329 330 334 331 335 332 330 329 329 327 323 323 320 317 317 313 312 313 313 313 313 313 306 302 289 279 276 276 273 273 266
285 277 282 285 289 293 296 298 304 307 311 318 321 321 320 324 332 326 324 328 326 321 319 316 314 312 308 308 307 305 304 300 300 300 302 301 299 287 280 276 275 274 269
283 281 281 282 287 292 296 299 302 306 309 311 312 314 316 315 323 318 316 317 317 320 317 316 314 309 305 302 298 298 295 297 295 293 294 295 295 291 282 274 275 270 271
276 275 279 280 283 288 293 294 296 299 304 307 309 310 309 307 316 312 311 312 315 318 317 316 314 309 302 297 295 295 295 293 291 291 292 288 287 288 280 273 272 272 265
278 278 279 280 282 283 285 288 291 294 300 304 305 305 305 306 309 308 309 311 313 315 316 316 314 312 306 301 299 295 293 293 289 285 285 285 284 281 275 269 268 267 270
280 279 278 278 279 282 285 287 293 298 300 302 303 302 300 306 305 309 307 309 310 312 313 313 313 310 305 302 299 294 293 292 289 286 282 279 278 279 275 267 264 265 268
280 282 279 279 282 284 288 291 293 296 300 302 302 303 302 298 299 304 303 306 306 310 309 310 311 308 300 300 298 296 293 290 287 283 281 279 276 275 271 266 265 265 265
284 283 278 278 282 287 289 292 294 300 303 305 304 300 298 298 299 303 304 304 307 307 306 307 309 304 301 301 299 297 294 290 284 281 280 279 276 272 267 265 264 264 266
285 282 281 281 282 283 284 288 291 295 301 303 301 297 296 296 298 300 301 302 304 305 303 306 306 301 302 302 301 300 294 287 283 281 280 277 273 269 268 268 266 266 267
286 284 283 283 283 285 287 286 284 291 297 301 298 295 295 296 298 298 299 299 302 303 303 304 303 301 302 303 305 299 293 287 285 283 280 276 271 269 269 266 262 261 262
282 282 280 281 282 283 283 284 284 288 294 296 293 293 294 295 295 295 295 297 299 300 301 303 303 302 304 306 305 298 291 287 286 284 280 275 272 273 271 266 261 259 258
278 275 276 276 276 278 280 282 284 287 290 291 291 292 293 292 291 292 293 294 297 297 299 302 303 304 306 305 300 295 290 289 287 283 276 273 274 274 270 266 258 256 253
275 275 275 277 278 278 280 281 283 286 287 288 290 291 291 290 291 292 293 295 296 296 298 303 306 307 307 303 297 292 292 290 285 278 274 273 275 272 265 259 251 249 250
Height
5865 5863 5861 5860 5859 5857 5855 5853 5850 5848 5846 5843 5841 5839 5839 5841 5845 5847 5848 5849 5851 5853 5854 5855 5856 5857 5858 5859 5858 5859 5859 5860 5861 5861 5862 5862 5862 5862 5861 5861 5860 5860 5861
5865 5863 5862 5861 5860 5858 5857 5854 5851 5848 5845 5843 5841 5839 5839 5839 5840 5842 5845 5848 5849 5851 5852 5854 5855 5856 5856 5857 5857 5857 5858 5858 5859 5860 5860 5860 5860 5860 5860 5859 5859 5858 5859
5865 5864 5863 5862 5860 5859 5857 5856 5853 5850 5847 5844 5842 5840 5839 5839 5840 5841 5842 5843 5846 5849 5850 5851 5853 5854 5854 5855 5855 5855 5857 5857 5857 5857 5858 5858 5858 5858 5857 5856 5856 5856 5857
5865 5864 5864 5863 5862 5861 5859 5856 5854 5852 5849 5846 5844 5842 5841 5840 5840 5840 5841 5841 5844 5846 5848 5850 5851 5851 5852 5852 5853 5853 5853 5854 5855 5855 5855 5855 5855 5854 5854 5853 5853 5855 5855
5866 5865 5865 5864 5862 5862 5859 5857 5855 5853 5851 5848 5847 5844 5843 5841 5840 5840 5840 5840 5840 5842 5844 5845 5848 5849 5850 5850 5850 5850 5851 5851 5851 5852 5852 5852 5852 5852 5852 5851 5851 5851 5851
5866 5865 5865 5864 5863 5862 5860 5858 5856 5854 5852 5850 5848 5846 5845 5843 5842 5840 5838 5838 5837 5838 5840 5842 5842 5843 5845 5845 5846 5846 5847 5847 5847 5847 5847 5848 5848 5849 5849 5849 5849 5849 5848
5866 5866 5865 5865 5863 5862 5860 5859 5857 5855 5853 5851 5849 5847 5846 5845 5843 5842 5840 5838 5837 5837 5837 5837 5839 5841 5841 5841 5840 5840 5840 5841 5843 5843 5843 5843 5843 5844 5845 5845 5846 5846 5846
5866 5865 5865 5865 5864 5862 5860 5859 5858 5856 5854 5853 5850 5848 5846 5845 5844 5843 5842 5841 5840 5838 5838 5838 5839 5841 5840 5839 5838 5837 5836 5836 5836 5838 5838 5838 5838 5839 5840 5840 5841 5841 5842
5865 5865 5864 5864 5863 5862 5861 5859 5858 5857 5856 5853 5852 5850 5847 5845 5843 5842 5842 5841 5841 5840 5839 5838 5839 5840 5839 5837 5836 5835 5833 5832 5832 5831 5835 5835 5835 5835 5835 5835 5835 5836 5836
5864 5864 5863 5863 5863 5862 5861 5860 5858 5857 5856 5856 5853 5850 5848 5847 5844 5842 5840 5839 5837 5837 5837 5837 5836 5836 5835 5834 5832 5832 5830 5828 5827 5829 5830 5830 5831 5831 5831 5831 5830 5831 5831
5863 5863 5863 5862 5861 5861 5860 5859 5858 5857 5856 5855 5854 5853 5849 5846 5844 5843 5840 5839 5838 5836 5834 5834 5833 5831 5829 5829 5829 5828 5826 5825 5824 5825 5826 5826 5826 5825 5824 5825 5825 5825 5824
5861 5861 5860 5860 5860 5859 5858 5857 5856 5855 5854 5853 5852 5851 5850 5848 5844 5841 5840 5838 5836 5835 5833 5831 5830 5828 5827 5825 5824 5824 5823 5821 5821 5821 5822 5821 5821 5821 5820 5818 5818 5819 5818
5859 5859 5858 5857 5857 5856 5855 5854 5854 5853 5851 5850 5849 5848 5846 5846 5843 5841 5838 5836 5834 5833 5832 5830 5828 5826 5825 5823 5822 5821 5819 5818 5816 5816 5815 5815 5814 5813 5811 5811 5811 5810 5811
5856 5856 5855 5854 5854 5853 5852 5851 5851 5849 5849 5847 5845 5844 5843 5842 5840 5838 5836 5834 5832 5830 5828 5826 5825 5823 5821 5820 5818 5817 5815 5814 5813 5810 5809 5808 5807 5806 5804 5803 5803 5803 5801
5853 5853 5852 5851 5850 5849 5849 5848 5846 5846 5845 5844 5842 5841 5839 5838 5837 5834 5833 5830 5829 5827 5825 5823 5821 5819 5817 5814 5812 5811 5810 5809 5807 5805 5802 5800 5798 5797 5796 5795 5794 5793 5792
5849 5849 5848 5846 5846 5845 5845 5844 5842 5841 5839 5838 5837 5836 5835 5833 5832 5830 5828 5826 5825 5822 5820 5817 5815 5813 5810 5807 5805 5803 5802 5800 5798 5797 5794 5791 5790 5788 5787 5786 5785 5784 5781
5844 5843 5842 5841 5841 5840 5840 5839 5837 5835 5834 5833 5832 5831 5829 5828 5827 5824 5822 5821 5818 5816 5814 5811 5808 5805 5802 5800 5797 5795 5792 5790 5789 5786 5783 5782 5779 5777 5776 5775 5774 5774 5774
5839 5839 5838 5837 5836 5835 5833 5831 5831 5830 5829 5828 5827 5826 5825 5823 5820 5818 5816 5814 5811 5809 5807 5804 5801 5798 5795 5792 5789 5787 5783 5780 5778 5774 5772 5770 5767 5765 5764 5764 5762 5761 5763
5836 5835 5834 5832 5831 5829 5828 5827 5826 5825 5824 5823 5821 5819 5817 5815 5813 5811 5808 5806 5804 5801 5798 5795 5792 5790 5787 5783 5780 5776 5772 5769 5766 5763 5760 5758 5755 5752 5750 5749 5749 5749 5748
5829 5829 5829 5828 5826 5825 5823 5822 5820 5819 5818 5816 5813 5811 5809 5807 5804 5801 5799 5797 5794 5791 5788 5785 5782 5779 5776 5771 5769 5765 5761 5757 5753 5749 5746 5743 5741 5738 5737 5736 5735 5736 5737
5823 5822 5822 5822 5821 5819 5817 5815 5813 5812 5810 5808 5806 5804 5802 5799 5796 5793 5791 5787 5783 5780 5777 5773 5769 5766 5762 5759 5756 5752 5749 5745 5740 5737 5733 5729 5727 5724 5723 5722 5722 5723 5725
5815 5814 5814 5814 5812 5810 5808 5806 5805 5803 5801 5799 5797 5794 5792 5789 5786 5783 5780 5777 5774 5771 5768 5764 5759 5755 5752 5747 5744 5740 5735 5731 5726 5722 5719 5715 5712 5711 5709 5708 5709 5710 5711
5806 5805 5805 5804 5802 5801 5800 5798 5796 5794 5791 5789 5787 5784 5782 5779 5776 5773 5770 5767 5764 5760 5756 5752 5748 5743 5739 5734 5729 5725 5719 5716 5711 5708 5704 5702 5700 5698 5696 5695 5696 5697 5699
5796 5796 5796 5794 5793 5791 5790 5787 5786 5784 5782 5779 5776 5773 5770 5768 5765 5762 5759 5756 5752 5748 5744 5740 5735 5730 5724 5718 5713 5708 5703 5700 5696 5694 5689 5688 5687 5686 5685 5684 5685 5687 5688
5786 5785 5784 5783 5781 5779 5778 5777 5774 5772 5770 5767 5764 5761 5759 5756 5753 5749 5746 5742 5739 5734 5730 5725 5720 5715 5709 5703 5697 5691 5687 5684 5681 5679 5677 5675 5675 5674 5674 5674 5675 5677 5678
5778 5776 5775 5774 5772 5770 5767 5765 5762 5760 5758 5756 5753 5750 5747 5744 5741 5737 5734 5730 5725 5721 5716 5710 5705 5699 5693 5686 5681 5676 5671 5668 5666 5666 5664 5663 5663 5663 5663 5664 5666 5666 5667